Tracking 31027 objects as of 19-Jul-2025
HD Live streaming from Space Station
objects crossing your sky now

SL-8 DEB

Track SL-8 DEB now!
10-day predictions


NORAD ID: 39691
Int'l Code: 1991-009DE
Perigee: 1,468.7 km
Apogee: 1,707.9 km
Inclination: 74.1 °
Period: 117.8 minutes
Semi major axis: 7959 km
RCS: 0.0212 m2 (small)
Launch date: February 12, 1991
Source: Commonwealth of Independent States (former USSR) (CIS)
Launch site: PLESETSK MISSILE AND SPACE COMPLEX (PKMTR)

Note: This is SATELLITE DEBRIS
Your satellite tracking list
Your tracking list is empty




NASA's NSSDC Master Catalog

Two Line Element Set (TLE):
1 39691U 91009DE  25178.76158819 -.00000195  00000-0 -16336-2 0  9993
2 39691  74.0585 295.7410 0150267  59.7678 301.8138 12.22625200476766
Source of the keplerian elements: AFSPC